TimeEDT,TemperatureF,Dew PointF,Humidity,Sea Level PressureIn,VisibilityMPH,Wind Direction,Wind SpeedMPH,Gust SpeedMPH,PrecipitationIn,Events,Conditions,WindDirDegrees,DateUTC
12:54 AM,55.0,52.0,89,29.89,10.0,Calm,Calm,-,N/A,,Clear,0,2013-08-02 04:54:00
1:54 AM,53.1,51.1,93,29.87,10.0,Calm,Calm,-,N/A,,Clear,0,2013-08-02 05:54:00
2:54 AM,53.1,50.0,89,29.86,10.0,Calm,Calm,-,N/A,,Clear,0,2013-08-02 06:54:00
3:54 AM,52.0,50.0,93,29.85,10.0,Calm,Calm,-,N/A,,Clear,0,2013-08-02 07:54:00
4:54 AM,53.1,52.0,96,29.84,10.0,Calm,Calm,-,0.00,,Mostly Cloudy,0,2013-08-02 08:54:00
5:54 AM,54.0,52.0,93,29.86,10.0,Calm,Calm,-,N/A,,Clear,0,2013-08-02 09:54:00
6:54 AM,53.1,51.1,93,29.86,10.0,Calm,Calm,-,N/A,,Partly Cloudy,0,2013-08-02 10:54:00
7:54 AM,55.0,54.0,96,29.85,10.0,Calm,Calm,-,N/A,,Clear,0,2013-08-02 11:54:00
8:54 AM,61.0,55.9,83,29.84,10.0,South,3.5,-,N/A,,Clear,180,2013-08-02 12:54:00
9:54 AM,66.0,57.0,73,29.84,10.0,South,5.8,-,N/A,,Scattered Clouds,170,2013-08-02 13:54:00
10:54 AM,62.1,57.9,86,29.85,4.0,Calm,Calm,-,0.02,Rain-Thunderstorm,Light Thunderstorms and Rain,0,2013-08-02 14:54:00
11:17 AM,62.6,59.0,88,29.84,10.0,Calm,Calm,-,0.01,,Overcast,0,2013-08-02 15:17:00
11:54 AM,63.0,59.0,87,29.84,10.0,Calm,Calm,-,0.01,,Overcast,0,2013-08-02 15:54:00
12:54 PM,68.0,57.9,70,29.82,10.0,West,6.9,-,N/A,,Partly Cloudy,260,2013-08-02 16:54:00
1:54 PM,71.1,57.0,61,29.80,10.0,WSW,4.6,-,N/A,,Scattered Clouds,240,2013-08-02 17:54:00
2:13 PM,68.0,60.8,78,29.80,2.5,SW,8.1,-,0.03,Rain-Thunderstorm,Heavy Thunderstorms and Rain,220,2013-08-02 18:13:00
2:26 PM,68.0,62.6,83,29.79,10.0,WSW,5.8,-,0.07,Thunderstorm,Thunderstorm,250,2013-08-02 18:26:00
2:54 PM,70.0,62.1,76,29.80,10.0,NNE,15.0,21.9,0.07,Thunderstorm,Scattered Clouds,20,2013-08-02 18:54:00
3:03 PM,66.2,60.8,83,29.80,10.0,North,11.5,-,N/A,,Mostly Cloudy,10,2013-08-02 19:03:00
3:09 PM,64.4,60.8,88,29.80,1.5,Variable,4.6,-,0.01,Rain,Rain,0,2013-08-02 19:09:00
3:25 PM,64.4,62.6,94,29.80,10.0,NE,8.1,-,0.16,,Overcast,40,2013-08-02 19:25:00
3:54 PM,68.0,63.0,84,29.80,10.0,East,5.8,-,0.16,,Clear,90,2013-08-02 19:54:00
4:54 PM,69.1,60.1,73,29.80,10.0,NNE,12.7,-,N/A,,Mostly Cloudy,30,2013-08-02 20:54:00
5:54 PM,69.1,60.1,73,29.81,10.0,NNE,8.1,-,N/A,,Mostly Cloudy,30,2013-08-02 21:54:00
6:54 PM,70.0,57.9,65,29.81,10.0,North,3.5,-,N/A,,Clear,10,2013-08-02 22:54:00
7:54 PM,70.0,57.9,65,29.83,10.0,NW,6.9,-,N/A,,Clear,320,2013-08-02 23:54:00
8:29 PM,66.2,57.2,73,29.83,10.0,NW,4.6,-,N/A,Thunderstorm,Thunderstorm,310,2013-08-03 00:29:00
8:54 PM,64.9,57.9,78,29.85,10.0,Calm,Calm,-,0.00,Rain-Thunderstorm,Light Thunderstorms and Rain,0,2013-08-03 00:54:00
9:05 PM,62.6,57.2,82,29.86,1.8,WNW,8.1,-,0.02,Rain,Heavy Rain,290,2013-08-03 01:05:00
9:13 PM,60.8,57.2,88,29.86,3.0,SSW,5.8,-,0.08,Rain-Thunderstorm,Light Thunderstorms and Rain,210,2013-08-03 01:13:00
9:40 PM,59.0,55.4,88,29.88,10.0,WSW,4.6,-,0.08,,Scattered Clouds,250,2013-08-03 01:40:00
9:54 PM,59.0,55.9,90,29.88,10.0,Calm,Calm,-,0.08,,Partly Cloudy,0,2013-08-03 01:54:00
10:54 PM,57.9,55.0,90,29.90,10.0,NW,3.5,-,N/A,,Clear,320,2013-08-03 02:54:00
11:54 PM,55.9,54.0,93,29.91,10.0,West,4.6,-,N/A,,Clear,280,2013-08-03 03:54:00